Location: Shenandoah County Park
(38.9356°N, 78.4524°W)
Time: 01:24:32
(UTC-04:00)

Transit 4A - Pass Details

Date: 17 June 2023
Orbit: 862 x 981 km, 66.8° (Epoch: 02 October)

Event Time Altitude Azimuth Distance (km) Brightness Sun altitude
Rises 22:56:20 0° 313° (NW) 3,678 12.5 -19.7°
Reaches altitude 10° 22:59:54 10° 294° (WNW) 2,734 11.1 -20.1°
Maximum altitude 23:03:40 16° 257° (WSW) 2,294 10.2 -20.5°
Drops below altitude 10° 23:07:25 10° 221° (SW) 2,723 10.2 -20.9°
Enters shadow 23:08:39 - 213° (SSW) 3,009 10.3 -21.0°
